Regional Weather Roundup
Issued by NWS Upton, NY

Current Version | Previous Version | Text Only | Print | Product List | Glossary Off
Versions: 1 2 3 4 5 6 7 8 9 10 11 12 13 14 15 16 17 18 19 20 21 22 23 24 25 26 27 28 29 30 31 32 33 34 35 36 37 38 39 40 41 42 43 44 45 46 47 48 49

000
ASUS41 KOKX 040308
RWROKX

REGIONAL WEATHER ROUNDUP
NATIONAL WEATHER SERVICE NEW YORK NY
1100 PM EDT SUN MAY 03 2015

NOTE: "FAIR" INDICATES FEW OR NO CLOUDS BELOW 12,000 FEET WITH NO
SIGNIFICANT WEATHER AND/OR OBSTRUCTIONS TO VISIBILITY.

NYZ071-072-176-178-NJZ106-104-040400-
NEW YORK CITY METRO AREA


CITY           SKY/WX    TMP DP  RH WIND       PRES   REMARKS
CENTRAL PARK   CLEAR     64  41  42 CALM      30.16R
LAGUARDIA APRT PTCLDY    60  46  59 S7        30.14R
KENNEDY INTL   CLEAR     54  48  80 SE5       30.16R
NEWARK/LIBERTY PTCLDY    65  41  41 S5        30.13R
BRNX BOT. GARD   N/A     57  45  62 E1        30.16R
TETERBORO      CLEAR     63  40  42 S3        30.13R
$$

NYZ177-179-078>081-040400-
LONG ISLAND NEW YORK

CITY           SKY/WX    TMP DP  RH WIND       PRES   REMARKS
FARMINGDALE    CLEAR     53  48  83 SW8       30.16R
ISLIP          PTCLDY    52  47  83 SE6       30.15R
SHIRLEY        CLEAR     50  44  80 S3        30.17S
WESTHAMPTON    MOCLDY    49  45  86 S3        30.18S
MONTAUK POINT    N/A     51  46  83 VRB3      30.19S
$$

NYZ052-065-067-040400-
HUDSON VALLEY

CITY           SKY/WX    TMP DP  RH WIND       PRES   REMARKS
WHITE PLAINS   CLEAR     54  46  74 CALM      30.14R
NEWBURGH       CLEAR     64  41  42 VRB6      30.13R
MONTGOMERY     CLEAR     54  46  74 CALM      30.11R
POUGHKEEPSIE   CLEAR     65  39  38 S6        30.11R
ALBANY         PTCLDY    59  41  51 CALM      30.09R
$$

NJZ001-105-106-008-010-013-015-019>022-104-040400-
NEW JERSEY

CITY           SKY/WX    TMP DP  RH WIND       PRES   REMARKS
NEWARK/LIBERTY PTCLDY    65  41  41 S5        30.13R
TETERBORO      CLEAR     63  40  42 S3        30.13R
CALDWELL       CLEAR     58  43  57 CALM      30.14R
MORRISTOWN     CLEAR     57  45  62 CALM      30.13S
SOMERVILLE     CLEAR     58  43  57 CALM      30.12R
SUSSEX         MOCLDY    58  44  60 W3        30.14R
ANDOVER          N/A     59  44  57 CALM      30.13R
TRENTON        CLEAR     61  38  42 SW7       30.14R
MILLVILLE      CLEAR     56  49  77 CALM      30.16R
ATLANTIC CITY  CLEAR     54  49  83 S3        30.16S
WRIGHTSTOWN    CLEAR     57  46  67 SW6       30.12R
TOMS RIVER     CLEAR     52  46  82 S3        30.16R
BELMAR         CLEAR     57  43  58 SW5       30.15R
$$

PAZ047>061-062-071-040400-
EASTERN PENNSYLVANIA

CITY           SKY/WX    TMP DP  RH WIND       PRES   REMARKS
PHILADELPHIA   CLEAR     65  44  46 SW5       30.15R
ALLENTOWN      CLEAR     63  38  39 CALM      30.12R
SCRANTON       CLEAR     63  34  33 E5        30.12R
$$

CTZ002-004>006-009-010-012-RIZ004-006-007-MAZ004-011-015-040400-
SOUTHERN NEW ENGLAND
 IN CT

CITY           SKY/WX    TMP DP  RH WIND       PRES   REMARKS
BRADLEY INTL   CLEAR     59  43  55 S10       30.13R
HARTFORD       CLEAR     56 N/A N/A S7        30.15R
DANBURY        CLEAR     55  41  59 CALM      30.15R
WTRBRY/OXFORD    N/A     54  41  62 CALM      30.18R
BRIDGEPORT     CLEAR     55  48  77 S8        30.16R
MERIDEN        FAIR      52  43  71 CALM      30.16R
NEW HAVEN      CLEAR     51  44  77 CALM      30.16R
CHESTER        FAIR      50  43  76 CALM      30.17R
GROTON         PTCLDY    48  44  86 S3        30.17S
WILLIMANTIC    MOCLDY    55  43  63 S5        30.16R

 IN RI

CITY           SKY/WX    TMP DP  RH WIND       PRES   REMARKS
PROVIDENCE     FAIR      49  41  74 S6        30.17S
BLOCK ISLAND   PTCLDY    48  45  87 SW10      30.18F
WESTERLY       PTCLDY    49  45  86 S3        30.19R

 IN MA

CITY           SKY/WX    TMP DP  RH WIND       PRES   REMARKS
BOSTON         PTCLDY    51  41  68 SW8       30.14S
WORCESTER      CLEAR     53  43  68 SW10      30.13S
WESTFIELD      CLEAR     60  43  53 S8        30.12R
PROVINCETOWN   CLEAR     48  43  81 S12       30.17S
NANTUCKET      PTCLDY    47  44  90 S7        30.20S
$$

ANZ330-335-338-340-345-350-353-355-040400-
COASTAL MARINE OBSERVATIONS


STATION/POSITION TIME  SKY/WX   TEMP    WIND        PRES    VSBY  WAVE
                                AIR SEA DIR/SP/G                  HT/PER
                 (UTC)          (F)     (DEG/KT/KT) (MB)    (MI)  (FT/S)
NY HARB ENTRANCE 0250            52 51  190/ 10/ 12 1020.5          4/ 8
4S FIRE IS       0203               48                N/A           4/13
20S FIRE ISLAND  0250            50 48  180/  8/ 10 1021.1          4/ 8
GREAT SOUTH BAY  0215            53 58  210/  6/  8   N/A
23SW MTP         0250            49 46  210/ 10/ 12 1021.5          4/ 8
HUDSON CANYON    NOT AVBL
EXECUTION ROCKS  NOT AVBL
WESTERN LI SOUND NOT AVBL
CENTRAL LI SOUND NOT AVBL
EASTERN LI SOUND 0200            48     130/  6/  8   N/A
ROBBINS REEF     0200            63     170/  7/  7 1019.1
$$


>>>>>>>>>>>>>>>>>>>>>>>>>>>> KEY <<<<<<<<<<<<<<<<<<<<<<<<<<<
>                                                          <
>     SKY/WX - SKY CONDITION/PRESENT WEATHER               <
>     TMP    - TEMPERATURE IN FAHRENHEIT                   <
>     DP     - DEWPOINT IN FAHRENHEIT                      <
>     RH     - RELATIVE HUMIDITY IN PERCENT                <
>     WIND   - DIRECTION AND SPEED IN MPH                  <
>     PRES   - MEAN SEA LEVEL PRESSURE IN INCHES OF HG     <
>     WCI    - WIND CHILL INDEX                            <
>     VSB    - VISIBILITY IN MILES                         <
>     HX     - HEAT INDEX                                  <
>     TC     - TEMPERATURE IN CELSIUS                      <
>     VRB    - VARIABLE WIND DIRECTION                     <
>                                                          <
>>>>>>>>>>>>>>>>>>>>>>>>>>>> KEY <<<<<<<<<<<<<<<<<<<<<<<<<<<





USA.gov is the U.S. government's official web portal to all federal, state and local government web resources and services.